Weather in Zelenoborsk

Russia / Komi Republic     64°28′46″N   55°17′44″E
temp.,
°C
wind,
m/s
gust,
m/s
humid.,
%
clouds,
%
prec.,
mm/h
press.,
hPa
HPBL,
m
15 august, mon
mon1500:00+10ssw2466100 0.0 1021113
03:00+10sw31063100 0.0 1020368
06:00+10wsw41179100 0.1 1019491
09:00+16w475851 0.3 10181059
12:00+16wnw4856100 0.3 10191631
15:00+19nw58328 0.3 10192552
18:00+16n374459 0.0 1020392
21:00+9nnw22725 0.0 102229
16 august, tue
tue1600:00+7nw23795 0.0 102351
03:00+5nw26935 0.0 1025130
06:00+9nnw38725 0.0 1025601
09:00+13nnw46495 0.0 10251244
12:00+16nnw463810 0.0 10251622
15:00+16nnw46365 0.0 10251773
18:00+14n25475 0.0 1025215
21:00+9n226514 0.0 102618
17 august, wed
wed1700:00+8ene127267 0.0 102664
03:00+8e1273100 0.0 102665
06:00+9ese126787 0.0 1026122
09:00+15se1050100 0.0 1026616
12:00+17ne124496 0.0 10251122
15:00+13e3561100 0.0 1025205
18:00+13ese256275 0.0 1025208
21:00+9ese237594 0.0 102549
18 august, thu
thu1800:00+8sse227746 0.0 102532
03:00+9sse227260 0.0 102543
06:00+13se236017 0.0 1026175
09:00+18sse234555 0.0 1025586
12:00+21s2243100 0.0 1025904
15:00+23s2245100 0.0 10241083
18:00+19sse236443 0.0 102459
21:00+14ssw238170 0.0 102444
19 august, fri
fri1900:00+14ssw258736 0.0 102483
03:00+13ssw24955 0.1 102479
06:00+17sw247916 0.0 1024168
09:00+24w245188 0.0 1024624
12:00+28wnw463851 0.0 10232240
15:00+23sw265477 0.0 1022128
18:00+23w2455100 0.0 102187
21:00+19wnw31174100 0.0 1023493